[[{"header":{"parameterUnit":"m.s-1","parameterCategory":1,"la1":30.2991,"la2":30.254,"lo1":-89.0895,"lo2":-89.0444,"dy":0.0017,"dx":0.0017,"nx":28,"ny":28,"refTime":"2024-03-28T09:00:00:Z","depth":0,"parameterNumber":2,"parameterNumberName":"U-component_of_WINDS"},"data":[0,0,0,0,0,0,0,0,0,0,0,0,0,0,0,0,0,0,0,0,0,0,0,0,0,0,0,0,0,0,0,0,0,0,0,0,0,0,0,0,0,0,0,0,0,0,0,0,0,0,0,0,0,0,0,0,0,0,-4.1431,-4.1432,0,-4.1455,-4.1456,-4.1456,-4.1363,-4.1361,-4.1358,-4.1355,-4.1383,-4.1386,-4.1389,0,0,0,0,0,0,0,0,0,0,0,0,0,-4.1308,-4.1311,-4.1431,-4.1432,-4.1432,-4.1455,-4.1456,-4.1456,-4.1364,-4.1361,-4.1357,-4.1354,-4.1381,-4.1385,-4.1389,0,0,0,0,0,0,0,0,0,0,0,0,0,-4.135,-4.1312,-4.1431,-4.1389,-4.1385,-4.1455,-4.1456,-4.1456,-4.1365,-4.1361,-4.1356,-4.1353,-4.138,-4.1385,-4.139,-4.1503,0,0,-4.1405,-4.1407,0,0,0,0,0,0,0,0,-4.1348,-4.1355,-4.1395,-4.1392,-4.1388,-4.1402,-4.1422,-4.1472,-4.1366,-4.1373,-4.1355,-4.1351,-4.1393,-4.1396,-4.141,-4.1504,-4.1505,-4.1405,-4.1408,-4.141,-4.1412,0,0,0,0,0,0,0,-4.1345,-4.1353,-4.1441,-4.1395,-4.1391,-4.1369,-4.1371,-4.1431,-4.1406,-4.1372,-4.1365,-4.1369,-4.139,-4.1405,-4.141,-4.1506,-4.1405,-4.141,-4.1413,-4.1415,-4.1696,-4.17,0,0,0,0,0,0,-4.1348,-4.1351,-4.144,-4.1442,-4.1357,-4.1375,-4.1376,-4.1402,-4.1405,-4.1401,-4.1372,-4.1365,-4.1399,-4.1404,-4.141,-4.1544,-4.141,-4.1415,-4.1418,-4.1692,-4.1697,-4.1702,0,0,0,0,0,0,-4.1345,-4.1356,-4.1439,-4.1395,-4.1404,-4.1381,-4.1411,-4.1404,-4.142,-4.1405,-4.14,-4.1393,-4.1396,-4.1404,-4.1481,-4.1544,-4.1417,-4.1422,-4.1686,-4.1693,-4.1699,-4.1812,0,0,0,0,0,0,-4.1342,-4.1356,-4.1398,-4.1396,-4.1406,-4.1509,-4.1414,-4.1408,-4.1428,-4.1418,-4.1423,-4.142,-4.1393,-4.1474,-4.1486,-4.1548,-4.1426,-4.168,-4.1689,-4.1697,-4.1803,-4.1822,-4.1839,0,0,0,0,0,-4.1338,-4.1429,-4.1401,-4.1412,-4.1458,-4.1512,-4.1518,-4.1485,-4.1434,-4.1476,-4.1467,-4.142,-4.1535,-4.1483,-4.1495,-4.156,-4.1676,-4.1687,-4.1697,-4.1795,-4.1818,-4.1838,0,0,0,0,0,0,-4.1439,-4.1428,-4.1396,-4.1489,-4.1502,-4.1497,-4.1549,-4.1511,-4.1539,-4.1529,-4.1487,-4.1489,-4.1574,-4.1575,-4.1517,-4.1671,-4.1597,-4.161,-4.1668,-4.169,-4.1707,-4.1706,-4.143,0,0,0,0,0,-4.1472,-4.1516,-4.1504,-4.1587,-4.1595,-4.1572,-4.1594,-4.1567,-4.158,-4.1585,-4.1581,-4.1596,-4.1635,-4.1662,-4.1698,-4.1802,-4.1803,-4.1854,-4.1871,-4.1886,-4.1898,-4.1956,-4.1978,-4.1735,-4.1735,-4.1735,0,0,-4.1541,-4.154,-4.157,-4.1608,-4.1615,-4.1662,-4.1577,-4.163,-4.1666,-4.1593,-4.1666,-4.1664,-4.1678,-4.177,-4.181,-4.1773,-4.1966,-4.1899,-4.1911,-4.1915,-4.1969,-4.1992,-4.2012,-4.1742,-4.1741,-4.174,0,0,-4.169,-4.1694,-4.1764,-4.1773,-4.1785,-4.1769,-4.1786,-4.1786,-4.1782,-4.1854,-4.1801,-4.1843,-4.1912,-4.1924,-4.194,-4.2096,-4.2054,-4.2109,-4.2203,-4.2259,-4.2278,-4.2295,-4.2352,-4.2373,-4.2121,-4.2121,-4.2121,0,-4.1775,-4.1843,-4.1805,-4.1863,-4.1882,-4.1818,-4.189,-4.1901,-4.1924,-4.1939,-4.1896,-4.1982,-4.1987,-4.2082,-4.212,-4.2134,-4.2154,-4.2108,-4.2278,-4.2295,-4.231,-4.2364,-4.2386,-4.2128,-4.2127,-4.2126,-4.2126,0,-4.1947,-4.1996,-4.2052,-4.2076,-4.21,-4.2165,-4.2138,-4.2168,-4.214,-4.2129,-4.2204,-4.2208,-4.2243,-4.2264,-4.2237,-4.2356,-4.2332,-4.2285,-4.221,-4.234,-4.2391,-4.2411,-4.2137,-4.2135,-4.2133,-4.2131,0,0,-4.2161,-4.2164,-4.2185,-4.2196,-4.2205,-4.2242,-4.2305,-4.2339,-4.2367,-4.2385,-4.2438,-4.2498,-4.2454,-4.2472,-4.2446,-4.2495,-4.2621,-4.2442,-4.2441,-4.2476,-4.2755,-4.2792,-4.2816,-4.2593,-4.2597,-4.26,-4.2754,0,-4.231,-4.2416,-4.2384,-4.2491,-4.2537,-4.2477,-4.2532,-4.2544,-4.2536,-4.2574,-4.2565,-4.2609,-4.2547,-4.2558,-4.2604,-4.2596,-4.2677,-4.2584,-4.2643,-4.2646,-4.2643,-4.2842,-4.2881,-4.3026,-4.2774,-4.2777,-4.2779,0,-4.2496,-4.2523,-4.2635,-4.2637,-4.2655,-4.2705,-4.2735,-4.2772,-4.2785,-4.2775,-4.2796,-4.276,-4.2823,-4.2747,-4.2835,-4.2773,-4.2795,-4.2795,-4.28,-4.2805,-4.2721,-4.2854,-4.3072,-4.3094,-4.281,-4.2807,-4.2805,0,-4.2644,-4.2706,-4.2782,-4.2793,-4.2797,-4.2834,-4.2838,-4.2847,-4.287,-4.2897,-4.2912,-4.2946,-4.2965,-4.2993,-4.2968,-4.2914,-4.306,-4.2981,-4.3055,-4.3056,-4.3089,-4.3087,-4.3315,-4.3101,-4.3101,-4.3101,-4.31,0,-4.2813,-4.2884,-4.2848,-4.2895,-4.2973,-4.2937,-4.3016,-4.3013,-4.3022,-4.3068,-4.3018,-4.3063,-4.3026,-4.3068,-4.3049,-4.3126,-4.3134,-4.313,-4.3124,-4.3135,-4.3136,-4.315,-4.3139,-4.3106,-4.3105,-4.3104,-4.3103,0,-4.2991,-4.2969,-4.3048,-4.3046,-4.3047,-4.3105,-4.3104,-4.3148,-4.3136,-4.3195,-4.3207,-4.3189,-4.3236,-4.3213,-4.3262,-4.3249,-4.3348,-4.3328,-4.3344,-4.3339,-4.3415,-4.3409,-4.366,-4.3692,-4.3457,-4.3459,-4.3461,0,-4.3101,-4.3154,-4.3158,-4.3186,-4.3193,-4.3237,-4.326,-4.3227,-4.3254,-4.3274,-4.3316,-4.3359,-4.3391,-4.3469,-4.3461,-4.3499,-4.348,-4.3565,-4.3485,-4.3495,-4.3483,-4.3481,-4.3487,-4.3582,-4.3585,-4.3587,-4.3589,0,-4.33,-4.3286,-4.3322,-4.3355,-4.3385,-4.3409,-4.3429,-4.3454,-4.3421,-4.3455,-4.3502,-4.3527,-4.3577,-4.3621,-4.3654,-4.3659,-4.362,-4.3614,-4.3633,-4.3646,-4.3653,-4.3652,-4.3389,-4.3609,-4.3607,-4.3605,-4.3604,-4.3603,-4.3448,-4.3493,-4.3504,-4.3546,-4.3557,-4.3577,-4.3619,-4.3612,-4.3651,-4.3689,-4.3667,-4.3723,-4.3736,-4.3777,-4.3787,-4.3831,-4.3798,-4.3825,-4.3833,-4.384,-4.3851,-4.3645,-4.3837,-4.3837,-4.3836,-4.3836,-4.3835,0,-4.3645,-4.3649,-4.3688,-4.3718,-4.3751,-4.371,-4.3731,-4.3762,-4.3811,-4.3827,-4.386,-4.3915,-4.3958,-4.3953,-4.3992,-4.4029,-4.4012,-4.404,-4.4038,-4.404,-4.3878,-4.3858,-4.4054,-4.4054,-4.4054,-4.4054,-4.4053,-4.4053,-4.3752,-4.3827,-4.3816,-4.3897,-4.39,-4.3954,-4.397,-4.3989,-4.4001,-4.4065,-4.41,-4.4096,-4.4104,-4.4144,-4.4182,-4.4179,-4.4197,-4.4233,-4.4224,-4.4073,-4.4052,-4.4031,-4.4012,-4.4237,-4.4237,-4.4383,-4.4384,-4.4385]},{"header":{"parameterUnit":"m.s-1","parameterCategory":1,"la1":30.2991,"la2":30.254,"lo1":-89.0895,"lo2":-89.0444,"dy":0.0017,"dx":0.0017,"nx":28,"ny":28,"refTime":"2024-03-28T09:00:00:Z","depth":0,"parameterNumber":3,"parameterNumberName":"V-component_of_WINDS"},"data":[0,0,0,0,0,0,0,0,0,0,0,0,0,0,0,0,0,0,0,0,0,0,0,0,0,0,0,0,0,0,0,0,0,0,0,0,0,0,0,0,0,0,0,0,0,0,0,0,0,0,0,0,0,0,0,0,0,0,0.1833,0.1833,0,0.1833,0.1833,0.1833,0.1852,0.1852,0.1853,0.1853,0.1852,0.1851,0.1851,0,0,0,0,0,0,0,0,0,0,0,0,0,0.1849,0.1849,0.1833,0.1833,0.1833,0.1833,0.1833,0.1833,0.1852,0.1852,0.1853,0.1853,0.1852,0.1851,0.1851,0,0,0,0,0,0,0,0,0,0,0,0,0,0.1845,0.1848,0.1833,0.1842,0.1843,0.1833,0.1833,0.1833,0.1852,0.1852,0.1853,0.1854,0.1852,0.1851,0.1851,0.1831,0,0,0.1848,0.1848,0,0,0,0,0,0,0,0,0.1845,0.1844,0.1841,0.1842,0.1843,0.1843,0.1838,0.1832,0.1851,0.1848,0.1853,0.1854,0.1848,0.1848,0.1846,0.1831,0.1831,0.1848,0.1848,0.1848,0.1847,0,0,0,0,0,0,0,0.1845,0.1844,0.1833,0.1841,0.1842,0.1846,0.1847,0.1837,0.1844,0.1849,0.185,0.185,0.1849,0.1847,0.1846,0.1831,0.1848,0.1848,0.1847,0.1847,0.1801,0.18,0,0,0,0,0,0,0.1844,0.1844,0.1833,0.1833,0.1846,0.1846,0.1846,0.1842,0.1844,0.1845,0.1849,0.1851,0.1848,0.1847,0.1846,0.1824,0.1848,0.1847,0.1846,0.1802,0.1801,0.18,0,0,0,0,0,0,0.1845,0.1843,0.1833,0.1839,0.1838,0.1844,0.184,0.1842,0.184,0.1845,0.1846,0.1846,0.1848,0.1847,0.1835,0.1824,0.1847,0.1846,0.1803,0.1801,0.18,0.1779,0,0,0,0,0,0,0.1845,0.1843,0.1836,0.1839,0.1838,0.1822,0.184,0.1841,0.1839,0.1841,0.1842,0.1843,0.1849,0.1836,0.1834,0.1824,0.1845,0.1804,0.1802,0.1801,0.1781,0.1778,0.1775,0,0,0,0,0,0.1845,0.1829,0.1835,0.1834,0.1829,0.1821,0.182,0.1828,0.1838,0.183,0.1834,0.1843,0.1826,0.1835,0.1833,0.1822,0.1804,0.1803,0.1801,0.1783,0.1778,0.1775,0,0,0,0,0,0,0.1824,0.183,0.1836,0.1821,0.182,0.1824,0.1815,0.1823,0.182,0.1822,0.1831,0.1831,0.1818,0.1819,0.1828,0.1804,0.1817,0.1815,0.1804,0.18,0.1797,0.1797,0.1845,0,0,0,0,0,0.1817,0.1811,0.1816,0.1802,0.1802,0.1808,0.1805,0.1812,0.1811,0.1811,0.1813,0.1813,0.1807,0.1804,0.1799,0.1782,0.1782,0.1773,0.177,0.1767,0.1765,0.1757,0.1753,0.1794,0.1794,0.1794,0,0,0.1804,0.1806,0.1801,0.1798,0.1798,0.1792,0.1808,0.18,0.1795,0.181,0.1799,0.18,0.18,0.1786,0.1779,0.1786,0.1754,0.1765,0.1763,0.1762,0.1755,0.1751,0.1748,0.1793,0.1793,0.1794,0,0,0.1776,0.1777,0.1765,0.1766,0.1767,0.1771,0.1769,0.1772,0.1774,0.1763,0.1774,0.1768,0.1759,0.1758,0.1757,0.173,0.1739,0.1728,0.1712,0.1704,0.17,0.1698,0.1689,0.1685,0.1726,0.1726,0.1726,0,0.1758,0.1749,0.1758,0.175,0.1748,0.1762,0.1751,0.1751,0.175,0.1748,0.1756,0.1745,0.1746,0.1732,0.1725,0.1723,0.1721,0.1728,0.17,0.1698,0.1695,0.1687,0.1683,0.1725,0.1725,0.1725,0.1725,0,0.1728,0.1721,0.1712,0.1712,0.1709,0.1699,0.1707,0.1703,0.171,0.1714,0.1703,0.1705,0.1701,0.1698,0.1704,0.1686,0.169,0.1699,0.1712,0.169,0.1682,0.1679,0.1723,0.1724,0.1724,0.1724,0,0,0.1685,0.1691,0.1688,0.1688,0.1691,0.1686,0.1677,0.1674,0.1671,0.167,0.1663,0.1655,0.1664,0.1662,0.1669,0.1661,0.1641,0.1671,0.1671,0.1666,0.1621,0.1614,0.1611,0.1647,0.1646,0.1646,0.1621,0,0.1659,0.1644,0.1653,0.1637,0.1631,0.1645,0.1637,0.1638,0.1642,0.1638,0.1642,0.1637,0.1648,0.1647,0.1641,0.1645,0.1632,0.1647,0.164,0.164,0.164,0.1606,0.1599,0.1576,0.1618,0.1618,0.1617,0,0.1625,0.1624,0.1608,0.1613,0.1611,0.1603,0.1602,0.1598,0.1599,0.1603,0.1602,0.161,0.1602,0.1615,0.1604,0.1614,0.1612,0.1613,0.1613,0.1612,0.1627,0.1605,0.1569,0.1565,0.1612,0.1613,0.1613,0,0.1597,0.1591,0.1581,0.1581,0.1586,0.1581,0.1582,0.1585,0.1583,0.1581,0.158,0.1578,0.1576,0.1574,0.1582,0.1591,0.157,0.1584,0.1573,0.1573,0.1568,0.1568,0.153,0.1566,0.1566,0.1566,0.1566,0,0.1566,0.1556,0.1568,0.1562,0.1551,0.1561,0.155,0.1553,0.1555,0.155,0.1561,0.1556,0.1566,0.1562,0.1568,0.1558,0.1557,0.156,0.1562,0.1559,0.1559,0.1558,0.156,0.1565,0.1565,0.1565,0.1566,0,0.1532,0.154,0.153,0.1536,0.1537,0.1529,0.1534,0.1529,0.1534,0.1527,0.1526,0.1534,0.1529,0.1537,0.1533,0.1537,0.1524,0.1528,0.1524,0.1525,0.1514,0.1515,0.1474,0.147,0.1508,0.1507,0.1507,0,0.1512,0.1504,0.151,0.1508,0.1509,0.1505,0.1504,0.1514,0.1511,0.1513,0.1508,0.1505,0.1503,0.1495,0.15,0.1498,0.1502,0.1488,0.1502,0.15,0.1502,0.1503,0.1502,0.1485,0.1485,0.1484,0.1484,0,0.1476,0.148,0.1478,0.1477,0.1475,0.1475,0.1475,0.1473,0.1483,0.148,0.1477,0.1475,0.1472,0.1469,0.1468,0.147,0.1479,0.148,0.1477,0.1475,0.1473,0.1474,0.1516,0.1481,0.1481,0.1481,0.1482,0.1482,0.1448,0.1443,0.1446,0.1444,0.1445,0.1446,0.1441,0.1446,0.1443,0.1442,0.1448,0.1443,0.1446,0.1446,0.1446,0.1443,0.1449,0.1445,0.1444,0.1443,0.1441,0.1473,0.1442,0.1443,0.1443,0.1443,0.1443,0,0.1413,0.1417,0.1414,0.1415,0.1413,0.1422,0.1423,0.1421,0.1417,0.1418,0.1417,0.1413,0.141,0.1415,0.1414,0.141,0.1414,0.1409,0.1409,0.141,0.1436,0.1438,0.1406,0.1406,0.1406,0.1406,0.1406,0.1406,0.1395,0.1386,0.1392,0.1384,0.1387,0.1383,0.1383,0.1384,0.1385,0.1381,0.1379,0.1383,0.1386,0.1385,0.1383,0.1384,0.1383,0.1377,0.138,0.1404,0.1408,0.1411,0.1414,0.1377,0.1377,0.1355,0.1355,0.1354]}]]